Regional Weather Roundup
Issued by NWS Sterling, VA

Home | Current Version | Previous Version | Graphics & Text | Print | Product List | Glossary On
Versions: 1 2 3 4 5 6 7 8 9 10 11 12 13 14 15 16 17 18 19 20 21 22 23 24 25 26 27 28 29 30 31 32 33 34 35 36 37 38 39 40 41 42 43 44 45 46 47 48 49 50
000
ASUS41 KLWX 151310
RWRLWX

REGIONAL WEATHER ROUNDUP
NATIONAL WEATHER SERVICE BALTIMORE MD/WASHINGTON DC
900 AM EDT MON SEP 15 2014

Note: "FAIR" indicates few or no clouds below 12,000 feet
with no significant weather and/or obstructions to visibility.
 TC=TEMPERATURE CELSIUS

 * =Non NWS site. Station does not report precipitation (e.g. rain,
    snow, etc.), thunder, or fog.

DCZ001-MDZ009-015-VAZ040>042-051-053>054-151400-
WASHINGTON METRO

CITY           SKY/WX    TMP DP  RH WIND       PRES   REMARKS
WASHINGTON NAT MOSUNNY   64  52  64 N5        30.26S
DULLES         MOSUNNY   56  51  84 W3        30.26S
ANDREWS AFB    PTSUNNY   62  54  76 VRB3      30.25S
QUANTICO       MOSUNNY   60  56  86 N8        30.26S
COLLEGE PARK*  PTSUNNY   59  55  88 CALM      30.25S
LEESBURG*      SUNNY     57  54  88 CALM      30.27R
MANASSAS*      SUNNY     57  55  94 CALM      30.26S
GAITHERSBURG*  SUNNY     59  52  77 SE5       30.29S

$$

MDZ006>007-011-014-151400-
BALTIMORE METRO

CITY           SKY/WX    TMP DP  RH WIND       PRES   REMARKS
BWI AIRPORT    PTSUNNY   60  52  74 CALM      30.25S
MD SCIENCE CTR   N/A     63  48  58 MISG      30.26R
MARTIN STATE   PTSUNNY   61  54  77 N6        30.27R
ANNAPOLIS      CLOUDY    64  54  69 CALM      30.24F
FORT MEADE*    PTSUNNY   55  54  94 CALM      30.27S

$$

MDZ012-015-019>023-151400-
MARYLAND EASTERN SHORE

CITY           SKY/WX    TMP DP  RH WIND       PRES   REMARKS
OCEAN CITY     SUNNY     63  54  72 N3        30.24S
SALISBURY      SUNNY     64  52  64 CALM      30.25R
BAY BRIDGE AP*   N/A     63  52  67 E3        30.25S
CAMBRIDGE*     CLOUDY    61  52  72 CALM      30.24S
EASTON*        PTSUNNY   61  59  94 CALM      30.28S

$$

MDZ017>025-151400-
SOUTHERN MARYLAND

CITY           SKY/WX    TMP DP  RH WIND       PRES   REMARKS
PATUXENT RIVER MOSUNNY   65  55  70 E7        30.24S
ST INIGOES     MOSUNNY   64  57  78 CALM      30.24R
LEONARDTOWN*   MOSUNNY   63  57  82 CALM      30.25S

$$

MDZ003>005-151400-
NORTH CENTRAL MARYLAND

CITY           SKY/WX    TMP DP  RH WIND       PRES   REMARKS
FREDERICK*     SUNNY     55  54  94 CALM      30.29R
HAGERSTOWN APT SUNNY     54  49  83 W3        30.26S
WESTMINSTER*   MOSUNNY   55  48  76 CALM      30.25S

$$

MDZ501>502-151400-
WESTERN MARYLAND

CITY           SKY/WX    TMP DP  RH WIND       PRES   REMARKS
OAKLAND*       SUNNY     52  52 100 CALM      30.26S
CUMBERLAND*    CLOUDY    50  48  93 CALM      30.32R

$$

VAZ025>031-151400-
SHENANDOAH VALLEY

CITY           SKY/WX    TMP DP  RH WIND       PRES   REMARKS
WINCHESTER*    PTSUNNY   54  50  87 CALM      30.26S
STAUNTON*      FOG       51  49  95 CALM      30.28S VSB 1/2

$$

WVZ021-048>050-054>055-151400-
EASTERN WEST VIRGINIA PANHANDLE

CITY           SKY/WX    TMP DP  RH WIND       PRES   REMARKS
MARTINSBURG    SUNNY     54  49  83 CALM      30.27R
PETERSBURG*    FOG       52  49  91 CALM      30.28F VSB 1/2

$$

VAZ036>039-050-151400-
CENTRAL FOOTHILLS

CITY           SKY/WX    TMP DP  RH WIND       PRES   REMARKS
CHARLOTTESVILL MOSUNNY   56  54  93 CALM      30.25S
ORANGE*        SUNNY     59  54  82 N3        30.26S

$$

VAZ055>057-151400-
NORTH AND CENTRAL PIEDMONT

CITY           SKY/WX    TMP DP  RH WIND       PRES   REMARKS
FREDERICKSBRG* CLOUDY    59  57  93 CALM      30.25S
STAFFORD*      CLOUDY    57  57 100 CALM      30.29S

$$

NCZ024-NYZ072-PAZ021-071-VAZ022-071-151400-
OTHER REGIONAL OBSERVATIONS

CITY           SKY/WX    TMP DP  RH WIND       PRES   REMARKS
NEW YORK CITY  SUNNY     59  42  53 VRB7      30.27S
PHILADELPHIA   MOSUNNY   60  47  61 NE7       30.26R
PITTSBURGH     MOSUNNY   49  46  90 CALM      30.24F
ROANOKE        CLOUDY    60  56  86 CALM      30.27S
RICHMOND       PTSUNNY   68  54  60 CALM      30.25R
RALEIGH        CLOUDY    65  58  78 CALM      30.26R

$$

ANZ530>537-151400-
MARINE OBSERVATIONS

STATION/POSITION TIME  TEMP    WIND        PRES
                       AIR SEA DIR/SP/G
                 (UTC) (F)     (DEG/KT/KT) (MB)
THOMAS PT LIGHT  1300   64 74  100/  4/  5 1025.1F
BALT KEY BRIDGE  1300   60      20/  7/  9 1024.2R
COVE POINT       1300   63     120/  6/  7 1023.9F
LEWISETTA        1300   64 73  270/  3/  3 1023.6S
SOLOMONS ISLAND  1300      76                N/A
PINEY POINT      1300           50/  4/  5   N/A

$$




USA.gov is the U.S. government's official web portal to all federal, state and local government web resources and services.